Simultaneous Nadir Overpasses (SNOs) Predictions

Prediction of SNOs between METOP-B and NOAA-19 Satellite Orbit:

Table of predicted SNOs for the next 14.0 days since TLE Epoch: 8/24/2024
Index Date (METOP-B) Time (METOP-B) Lat,Lon (METOP-B) SZA (METOP-B ) Date (NOAA-19) Time (NOAA-19) Lat,Lon (NOAA-19) SZA (NOAA-19 ) Distance(km) Time Diff (sec)
1 08/29/2024 21:14:59 70.27, -23.75 89.70 08/29/2024 21:13:47 70.29, -23.79 89.59 2.33 72
2 08/29/2024 22:05:19 -69.23, 145.09 89.38 08/29/2024 22:04:23 -69.22, 145.12 89.44 1.57 56
3 08/29/2024 22:55:44 68.31, -46.36 91.45 08/29/2024 22:55:07 68.30, -46.34 91.41 1.33 37
4 08/29/2024 23:46:12 -67.70, 121.73 88.02 08/29/2024 23:45:52 -67.71, 121.69 88.07 2.42 20
5 08/30/2024 00:36:25 66.10, -69.14 93.38 08/30/2024 00:36:24 66.11, -69.16 93.37 1.78 1
6 08/30/2024 01:26:41 -64.82, 99.47 85.53 08/30/2024 01:26:56 -64.83, 99.46 85.51 0.75 15
7 08/30/2024 02:16:48 62.85, -91.44 96.16 08/30/2024 02:17:22 62.84, -91.43 96.22 1.42 34
8 08/30/2024 03:06:58 -61.23, 77.17 82.49 08/30/2024 03:07:48 -61.23, 77.17 82.40 0.20 50



Historial Predications of SNOs between METOP-B and NOAA-19
